TimeCDT,TemperatureF,Dew PointF,Humidity,Sea Level PressureIn,VisibilityMPH,Wind Direction,Wind SpeedMPH,Gust SpeedMPH,PrecipitationIn,Events,Conditions,WindDirDegrees,DateUTC
12:55 AM,57.0,51.8,83,30.14,10.0,NNW,3.5,-,N/A,,Clear,340,2011-10-05 05:55:00
1:55 AM,58.3,50.5,75,30.14,10.0,NNW,3.5,-,N/A,,Clear,330,2011-10-05 06:55:00
2:55 AM,55.9,50.9,83,30.12,10.0,NNW,4.6,-,N/A,,Clear,330,2011-10-05 07:55:00
3:55 AM,57.2,50.2,77,30.12,10.0,Calm,Calm,-,N/A,,Clear,0,2011-10-05 08:55:00
4:55 AM,55.8,49.5,79,30.13,10.0,North,3.5,-,N/A,,Clear,360,2011-10-05 09:55:00
5:55 AM,57.9,49.1,72,30.14,10.0,NNE,3.5,-,N/A,,Clear,30,2011-10-05 10:55:00
6:55 AM,55.0,49.3,81,30.16,10.0,North,3.5,-,N/A,,Clear,350,2011-10-05 11:55:00
7:55 AM,62.6,52.0,68,30.17,10.0,NE,5.8,-,N/A,,Clear,40,2011-10-05 12:55:00
8:55 AM,69.4,57.0,65,30.19,10.0,ENE,4.6,-,N/A,,Clear,70,2011-10-05 13:55:00
9:21 AM,73.4,60.8,65,30.19,10.0,East,4.6,-,N/A,,Light Drizzle,80,2011-10-05 14:21:00
9:30 AM,73.4,60.8,65,30.19,10.0,East,8.1,-,N/A,,Clear,80,2011-10-05 14:30:00
9:55 AM,75.2,62.8,65,30.20,10.0,East,8.1,-,0.00,,Clear,90,2011-10-05 14:55:00
10:42 AM,77.0,64.4,65,30.19,10.0,ESE,9.2,-,N/A,,Light Drizzle,110,2011-10-05 15:42:00
10:51 AM,77.0,62.6,61,30.19,10.0,East,9.2,16.1,N/A,,Clear,90,2011-10-05 15:51:00
10:55 AM,78.1,62.2,58,30.19,10.0,East,9.2,16.1,0.00,,Clear,80,2011-10-05 15:55:00
11:12 AM,78.8,59.0,51,30.19,10.0,East,10.4,-,N/A,Rain,Light Rain,90,2011-10-05 16:12:00
11:18 AM,78.8,59.0,51,30.19,10.0,East,12.7,-,N/A,,Clear,100,2011-10-05 16:18:00
11:20 AM,78.8,59.0,51,30.19,10.0,East,10.4,-,N/A,,Light Drizzle,100,2011-10-05 16:20:00
11:22 AM,78.8,59.0,51,30.19,10.0,East,9.2,-,N/A,,Clear,80,2011-10-05 16:22:00
11:24 AM,78.8,59.0,51,30.19,10.0,East,10.4,-,N/A,Rain,Light Rain,100,2011-10-05 16:24:00
11:30 AM,78.8,57.2,47,30.19,10.0,East,10.4,-,N/A,,Clear,90,2011-10-05 16:30:00
11:55 AM,80.2,58.5,47,30.18,10.0,ENE,9.2,-,0.00,,Clear,70,2011-10-05 16:55:00
12:18 PM,80.6,59.0,48,30.17,10.0,Variable,6.9,-,N/A,,Light Drizzle,0,2011-10-05 17:18:00
12:28 PM,80.6,59.0,48,30.17,10.0,East,8.1,-,N/A,,Clear,90,2011-10-05 17:28:00
12:55 PM,80.8,59.0,47,30.16,10.0,ENE,5.8,-,0.00,,Clear,70,2011-10-05 17:55:00
1:26 PM,80.6,55.4,42,30.15,10.0,SSE,11.5,-,N/A,,Light Drizzle,150,2011-10-05 18:26:00
1:33 PM,80.6,55.4,42,30.15,10.0,SSE,12.7,-,N/A,,Clear,160,2011-10-05 18:33:00
1:55 PM,80.8,56.8,44,30.14,10.0,SSE,9.2,-,0.00,,Clear,150,2011-10-05 18:55:00
2:55 PM,80.2,57.7,46,30.12,10.0,South,10.4,-,N/A,,Clear,170,2011-10-05 19:55:00
3:55 PM,80.1,57.4,46,30.11,10.0,SSE,8.1,-,N/A,,Clear,160,2011-10-05 20:55:00
4:55 PM,78.8,56.8,47,30.10,10.0,SSE,6.9,-,N/A,,Clear,160,2011-10-05 21:55:00
5:08 PM,78.8,59.0,51,30.10,10.0,South,5.8,-,N/A,,Light Drizzle,190,2011-10-05 22:08:00
5:09 PM,78.8,59.0,51,30.10,10.0,South,5.8,-,N/A,,Clear,180,2011-10-05 22:09:00
5:55 PM,77.0,58.3,52,30.10,10.0,SW,3.5,-,0.00,,Clear,220,2011-10-05 22:55:00
6:55 PM,74.8,59.5,59,30.11,10.0,Calm,Calm,-,N/A,,Clear,0,2011-10-05 23:55:00
7:55 PM,66.9,61.0,81,30.12,10.0,Calm,Calm,-,N/A,,Clear,0,2011-10-06 00:55:00
8:55 PM,68.2,59.7,74,30.13,10.0,Calm,Calm,-,N/A,,Clear,0,2011-10-06 01:55:00
9:55 PM,62.1,60.1,93,30.14,10.0,Calm,Calm,-,N/A,,Clear,0,2011-10-06 02:55:00
10:55 PM,61.2,59.4,94,30.13,10.0,Calm,Calm,-,N/A,,Clear,0,2011-10-06 03:55:00
11:55 PM,59.9,58.3,94,30.13,10.0,Calm,Calm,-,N/A,,Clear,0,2011-10-06 04:55:00